Weather History for Fremont, NE

Change the Weather History Date:

Sunday, May 19, 2013

  Actual Average Record
Temperature  
Mean Temperature 67 °F -  
Max Temperature 76 °F 76 °F 93 °F (1975)
Min Temperature 58 °F 52 °F 36 °F (1968)
Cooling Degree Days 2    
Growing Degree Days 17 (Base 50)    
Moisture  
Dew Point 63 °F    
Average Humidity 90    
Maximum Humidity 100    
Minimum Humidity 68    
Precipitation  
Precipitation 0.32 in - - ()
Sea Level Pressure  
Sea Level Pressure 29.64 in    
Wind  
Wind Speed 6 mph (SE)    
Max Wind Speed 25 mph    
Max Gust Speed 41 mph    
Visibility 10 miles    
Events Rain , Thunderstorm    
Averages and records for this station are not official NWS values.
T = Trace of Precipitation, MM = Missing Value Source: NWS Daily Summary

Daily Weather History Graph

Daily Weather History Graph

Search for Another Location

Airport:

Trip Planner

Search our weather history database for the weather conditions in past years. The results will help you decide how hot, cold, wet, or windy it might be!

Date:

Astronomy

May. 19, 2013 Rise Set
Actual Time 6:03 AM CDT 8:42 PM CDT
Civil Twilight 5:31 AM CDT 9:14 PM CDT
Nautical Twilight 4:51 AM CDT 9:54 PM CDT
Astronomical Twilight 4:05 AM CDT 10:40 PM CDT
Moon 2:44 PM CDT (5/19) 2:31 AM CDT (5/19)
Length of Visible Light 15h 43m
Length of Day
14h 39m
Waxing Gibbous, 65% of the Moon is Illuminated
May 19
Waxing Gibbous
May 24
Full
May 31
Last Quarter
Jun 8
New
Jun 16
First Quarter

Hourly Weather History & Observations

Time (CDT) Temp. Dew Point Humidity Pressure Visibility Wind Dir Wind Speed Gust Speed Precip Events Conditions
12:15 AM 65.1 °F 63.5 °F 94% 29.71 in 10.0 mi Calm Calm - 0.01 in Rain , Thunderstorm Light Thunderstorms and Rain
12:35 AM 65.3 °F 64.0 °F 96% 29.79 in 7.0 mi SSE 10.4 mph - 0.05 in Rain , Thunderstorm Thunderstorms and Rain
12:55 AM 65.1 °F 62.4 °F 91% 29.69 in 10.0 mi West 8.1 mph - 0.07 in Rain , Thunderstorm Light Thunderstorms and Rain
1:15 AM 66.0 °F 62.6 °F 89% 29.72 in 10.0 mi East 9.2 mph - N/A Rain , Thunderstorm Thunderstorms and Rain
1:35 AM 65.8 °F 62.4 °F 89% 29.74 in 10.0 mi SSW 4.6 mph 23.0 mph 0.02 in Rain , Thunderstorm Thunderstorms and Rain
1:55 AM 64.6 °F 63.3 °F 96% 29.75 in 10.0 mi South 5.8 mph - 0.06 in Rain , Thunderstorm Thunderstorms and Rain
2:15 AM 64.6 °F 63.0 °F 94% 29.75 in 10.0 mi SSE 10.4 mph - 0.03 in Rain , Thunderstorm Light Thunderstorms and Rain
2:35 AM 63.9 °F 63.1 °F 97% 29.73 in 10.0 mi SE 4.6 mph - 0.03 in Rain , Thunderstorm Light Thunderstorms and Rain
2:55 AM 63.5 °F 62.8 °F 97% 29.73 in 10.0 mi Calm Calm - 0.03 in   Scattered Clouds
3:15 AM 63.9 °F 63.1 °F 97% 29.72 in 10.0 mi ENE 3.5 mph - N/A   Mostly Cloudy
3:35 AM 63.5 °F 63.1 °F 99% 29.66 in 10.0 mi ESE 16.1 mph - N/A   Scattered Clouds
3:55 AM 63.5 °F 63.1 °F 99% 29.68 in 10.0 mi SE 9.2 mph - N/A   Scattered Clouds
4:15 AM 62.6 °F 62.6 °F 100% 29.65 in 10.0 mi West 3.5 mph - N/A   Clear
4:35 AM 61.9 °F 61.9 °F 100% 29.66 in 10.0 mi WSW 5.8 mph - N/A   Clear
4:55 AM 62.2 °F 62.2 °F 100% 29.67 in 10.0 mi West 5.8 mph - N/A   Clear
5:15 AM 61.7 °F 61.7 °F 100% 29.68 in 10.0 mi SSE 5.8 mph - N/A   Clear
5:35 AM 61.9 °F 61.9 °F 100% 29.69 in 10.0 mi SSE 8.1 mph - N/A   Clear
5:55 AM 61.9 °F 61.9 °F 100% 29.67 in 10.0 mi SSE 6.9 mph - N/A   Clear
6:15 AM 61.7 °F 61.7 °F 100% 29.67 in 5.0 mi SSE 6.9 mph - N/A   Scattered Clouds
6:35 AM 61.7 °F 61.7 °F 100% 29.65 in 5.0 mi SE 8.1 mph - N/A   Clear
7:15 AM 63.0 °F 62.8 °F 99% 29.66 in 5.0 mi ESE 4.6 mph - N/A   Clear
7:35 AM 63.5 °F 62.8 °F 97% 29.65 in 7.0 mi Calm Calm - N/A   Clear
7:55 AM 63.9 °F 63.3 °F 98% 29.68 in 10.0 mi Calm Calm - N/A   Clear
8:15 AM 64.4 °F 63.5 °F 97% 29.70 in 10.0 mi SSE 9.2 mph - N/A   Scattered Clouds
8:35 AM 64.6 °F 63.3 °F 96% 29.70 in 10.0 mi SE 9.2 mph - N/A   Scattered Clouds
8:55 AM 64.8 °F 62.6 °F 93% 29.69 in 10.0 mi South 4.6 mph - N/A   Scattered Clouds
9:15 AM 64.4 °F 63.0 °F 95% 29.68 in 10.0 mi ESE 8.1 mph - N/A   Clear
9:55 AM 64.4 °F 63.5 °F 97% 29.66 in 10.0 mi SE 3.5 mph - 0.01 in   Drizzle
10:15 AM 65.3 °F 63.9 °F 95% 29.65 in 10.0 mi ENE 4.6 mph - N/A Rain , Thunderstorm Light Thunderstorms and Rain
10:35 AM 65.5 °F 64.4 °F 96% 29.67 in 10.0 mi Calm Calm - N/A Rain Light Rain
10:55 AM 66.6 °F 64.8 °F 94% 29.65 in 10.0 mi ENE 6.9 mph - N/A   Light Drizzle
11:15 AM 67.5 °F 65.3 °F 93% 29.67 in 10.0 mi East 10.4 mph - N/A   Mostly Cloudy
11:35 AM 67.6 °F 64.8 °F 90% 29.67 in 10.0 mi ESE 8.1 mph - N/A   Mostly Cloudy
11:55 AM 67.8 °F 64.8 °F 90% 29.68 in 10.0 mi SE 9.2 mph - N/A   Mostly Cloudy
12:15 PM 67.5 °F 64.8 °F 91% 29.67 in 10.0 mi ESE 8.1 mph - N/A   Overcast
12:35 PM 68.7 °F 65.5 °F 89% 29.66 in 10.0 mi SE 6.9 mph - N/A   Overcast
12:55 PM 70.3 °F 65.1 °F 83% 29.65 in 10.0 mi ESE 9.2 mph - N/A   Mostly Cloudy
1:15 PM 70.7 °F 64.8 °F 81% 29.65 in 10.0 mi SE 8.1 mph - N/A   Mostly Cloudy
1:35 PM 70.7 °F 64.6 °F 81% 29.65 in 10.0 mi SE 6.9 mph - N/A   Mostly Cloudy
2:15 PM 72.9 °F 65.5 °F 78% 29.65 in 10.0 mi Calm Calm - N/A   Mostly Cloudy
2:35 PM 73.4 °F 65.1 °F 75% 29.65 in 10.0 mi SSW 4.6 mph - N/A Thunderstorm Mostly Cloudy
2:55 PM 72.5 °F 64.2 °F 75% 29.67 in 10.0 mi South 9.2 mph - N/A Thunderstorm Thunderstorm
3:15 PM 69.8 °F 66.6 °F 89% 29.65 in 7.0 mi ESE 6.9 mph - 0.05 in Rain , Thunderstorm Light Thunderstorms and Rain
3:35 PM 69.3 °F 67.1 °F 93% 29.62 in 10.0 mi ENE 3.5 mph - 0.06 in Rain , Thunderstorm Light Thunderstorms and Rain
3:55 PM 70.7 °F 68.0 °F 91% 29.61 in 10.0 mi Calm Calm - 0.06 in Thunderstorm Scattered Clouds
4:15 PM 72.0 °F 69.6 °F 92% 29.61 in 10.0 mi SE 8.1 mph - N/A   Clear
4:35 PM 73.4 °F 67.6 °F 82% 29.60 in 10.0 mi East 9.2 mph - N/A   Scattered Clouds
4:55 PM 72.5 °F 66.6 °F 82% 29.58 in 10.0 mi East 6.9 mph - N/A Thunderstorm Scattered Clouds
5:15 PM 73.8 °F 67.3 °F 80% 29.56 in 10.0 mi East 8.1 mph - N/A   Clear
5:35 PM 76.1 °F 66.2 °F 71% 29.54 in 10.0 mi East 6.9 mph - N/A Thunderstorm Clear
5:55 PM 76.1 °F 65.5 °F 70% 29.52 in 10.0 mi East 6.9 mph - N/A   Clear
6:15 PM 75.4 °F 64.6 °F 69% 29.51 in 10.0 mi East 9.2 mph - N/A   Clear
6:35 PM 73.6 °F 62.6 °F 68% 29.53 in 10.0 mi East 10.4 mph - N/A   Clear
6:55 PM 72.7 °F 62.2 °F 70% 29.54 in 10.0 mi East 9.2 mph - N/A Thunderstorm Clear
7:15 PM 72.0 °F 63.0 °F 73% 29.53 in 10.0 mi ESE 9.2 mph - N/A   Clear
7:35 PM 71.4 °F 64.2 °F 78% 29.53 in 10.0 mi ESE 10.4 mph - N/A   Clear
7:55 PM 70.9 °F 63.5 °F 77% 29.54 in 10.0 mi SE 12.7 mph - N/A   Clear
8:15 PM 68.9 °F 63.1 °F 82% 29.53 in 10.0 mi SSE 11.5 mph 21.9 mph N/A Thunderstorm Clear
8:35 PM 68.0 °F 60.8 °F 78% 29.56 in 10.0 mi South 10.4 mph - N/A   Mostly Cloudy
8:55 PM 62.6 °F 56.7 °F 81% 29.65 in 10.0 mi West 25.3 mph 41.4 mph N/A   Overcast
9:15 PM 60.3 °F 56.7 °F 88% 29.63 in 10.0 mi West 13.8 mph 17.3 mph 0.02 in Rain Rain
9:35 PM 58.5 °F 57.7 °F 97% 29.62 in 7.0 mi WNW 6.9 mph - 0.07 in Rain Rain
9:55 PM 58.5 °F 58.1 °F 99% 29.61 in 10.0 mi Calm Calm - 0.07 in Rain Rain
10:15 PM 58.8 °F 58.1 °F 97% 29.60 in 10.0 mi Calm Calm - 0.01 in   Overcast
10:35 PM 59.2 °F 59.0 °F 99% 29.57 in 7.0 mi East 8.1 mph - 0.02 in Rain Light Rain
10:55 PM 59.5 °F 59.0 °F 98% 29.55 in 10.0 mi ESE 11.5 mph - 0.02 in   Mostly Cloudy
11:15 PM 59.9 °F 59.0 °F 97% 29.55 in 10.0 mi SE 13.8 mph - N/A   Scattered Clouds
11:35 PM 59.7 °F 58.3 °F 95% 29.55 in 10.0 mi SE 4.6 mph - N/A   Scattered Clouds
11:55 PM 59.5 °F 58.3 °F 96% 29.54 in 10.0 mi South 3.5 mph - N/A   Clear